Location: Hysolar-Haus
(48.7436°N, 9.0965°E)
Time: 18:45:15
(UTC+00:00)

Vanguard 1 - All Passes

Search period start: 12 November 2019 00:00
Search period end: 22 November 2019 00:00
Orbit: 652 x 3831 km, 34.2° (Epoch: 11 November)

Date Brightness Start Highest point End Pass type
(mag) Time Alt. Az. Time Alt. Az. Time Alt. Az.
12 Nov - 12:27:09 10° SSW 12:29:16 12° S 12:31:14 10° SE daylight
12 Nov - 14:46:13 10° SW 14:48:21 13° S 14:50:34 10° SSE daylight
13 Nov - 12:47:19 10° SSW 12:49:57 14° S 12:52:21 10° SE daylight
13 Nov - 15:07:32 10° SSW 15:09:01 11° S 15:10:33 10° S daylight
14 Nov - 10:49:17 10° S 10:51:19 12° SSE 10:53:08 10° SSE daylight
14 Nov - 13:07:52 10° SW 13:10:37 15° S 13:13:10 10° SSE daylight
15 Nov - 11:08:44 10° SSW 11:12:04 14° S 11:14:51 10° SE daylight
15 Nov - 13:28:38 10° SW 13:31:16 14° S 13:33:44 10° SSE daylight
16 Nov - 09:12:22 10° SSE 09:13:00 10° SSE 09:13:38 10° SSE daylight
16 Nov - 11:28:53 10° SW 11:32:48 17° S 11:35:59 10° SE daylight
16 Nov - 13:49:41 10° SW 13:51:54 13° SSW 13:54:00 10° SSE daylight
17 Nov - 09:29:52 10° SSW 09:33:51 14° SSE 09:37:04 10° SE daylight
17 Nov - 11:49:22 10° SW 11:53:31 18° S 11:56:51 10° SE daylight
17 Nov - 14:11:18 10° SSW 14:12:31 11° SSW 14:13:41 10° S daylight
18 Nov - 09:49:23 10° SSW 09:54:40 17° S 09:58:38 10° SE daylight
18 Nov - 12:10:05 10° SW 12:14:12 18° S 12:17:31 10° SE daylight
19 Nov - 07:51:38 10° S 07:55:07 12° SSE 07:58:08 10° SE daylight
19 Nov - 10:09:29 10° SW 10:15:28 20° S 10:19:48 10° SE daylight
19 Nov - 12:30:59 10° SW 12:34:50 17° SSW 12:38:00 10° SSE daylight
20 Nov - 08:09:49 10° SSW 08:16:01 16° SSE 08:20:43 10° SE daylight
20 Nov - 10:29:54 10° SW 10:36:14 22° S 10:40:42 10° SE daylight
20 Nov - 12:52:07 10° SW 12:55:26 15° SSW 12:58:16 10° SSE daylight
21 Nov - 08:29:12 10° SSW 08:36:55 20° SSE 08:42:18 10° ESE daylight
21 Nov - 10:50:35 10° SW 10:56:59 23° S 11:01:27 10° SE daylight
21 Nov - 13:13:36 10° SW 13:15:59 13° SSW 13:18:07 10° S daylight
